Location: Fontevrault
(47.1823°N, 0.0493°E)
Time: 04:47:10
(UTC+00:00)

Uosat 12 SS-18 rocket - Pass Details

Date: 25 October 2021
Orbit: 579 x 1405 km, 64.6° (Epoch: 01 December)

Event Time Altitude Azimuth Distance (km) Brightness Sun altitude
Rises 17:26:50 0° 259° (W) 3,162 10.6 -6.2°
Reaches altitude 10° 17:29:20 10° 272° (W) 2,353 8.6 -6.6°
Maximum altitude 17:34:01 28° 331° (NNW) 1,613 6.4 -7.4°
Drops below altitude 10° 17:39:38 10° 30° (NNE) 2,849 7.1 -8.3°
Enters shadow 17:42:54 - 41° (NE) 3,929 7.7 -8.9°
